Regional Weather Roundup
Issued by NWS

Home | Current Version | Previous Version | Text Only | Print | Product List | Glossary Off
Versions: 1 2 3 4 5 6 7 8 9 10 11 12 13 14 15 16 17 18 19 20 21 22 23 24 25 26 27 28 29 30 31 32 33 34 35 36 37 38 39 40 41 42 43 44 45 46 47 48 49 50

000
ASUS45 KCYS 261410
RWRWY

WYOMING REGIONAL WEATHER ROUNDUP
NATIONAL WEATHER SERVICE CHEYENNE WY
700 AM MST SUN FEB 26 2017

NOTE:  "FAIR" INDICATES FEW OR NO CLOUDS BELOW 12,000 FEET
WITH NO SIGNIFICANT WEATHER AND/OR OBSTRUCTIONS TO VISIBILITY.

WYZ001-261500-
YELLOWSTONE NATIONAL PARK

CITY           SKY/WX    TMP DP  RH WIND       PRES   REMARKS
LK YELLOWSTONE   N/A      5   3  91 CALM      29.72S
W YELLOWSTONE  NOT AVBL

$$
WYZ002>013-054>058-071-098>099-261500-
NORTHERN WYOMING

CITY           SKY/WX    TMP DP  RH WIND       PRES   REMARKS
JACKSON        MOCLDY    12  10  92 SW5       29.78F WCI   4
CODY           FAIR      22   2  42 SW17G24   29.71S WCI   8
GREYBULL       FAIR      19  11  70 S6        29.77R WCI  11
WORLAND        FAIR      12   6  77 S7        29.76S WCI   1
SHERIDAN       CLOUDY    18   7  62 SW9       29.72S WCI   7
BUFFALO        FAIR      17   0  47 W5        29.69S WCI  10
GILLETTE       FAIR      17   5  59 SW13      29.71S WCI   4
HULETT         FAIR      19  12  73 SW9       29.72R WCI   9
NEWCASTLE      FAIR       5   1  85 SE7       29.77R WCI  -7

$$
WYZ014>020-022>026-101>103-261500-
CENTRAL WYOMING

CITY           SKY/WX    TMP DP  RH WIND       PRES   REMARKS
BIG PINEY      FAIR     -15 -18  86 E3        29.80F
PINEDALE       FAIR     -13 -18  77 NW6       29.80S WCI -27
DUBOIS         FAIR       7  -2  66 NW15G25   29.68S WCI -11
LANDER         FAIR       5  -8  55 CALM      29.71S
RIVERTON       FAIR       6  -3  66 W14       29.70F WCI -11
CASPER         FAIR      10   1  67 SW20G29   29.74F WCI  -9
DOUGLAS        FAIR       5  -6  60 CALM      29.77S

$$
WYZ021-027>030-104>119-261500-
SOUTHERN WYOMING

CITY           SKY/WX    TMP DP  RH WIND       PRES   REMARKS
EVANSTON       FLURRIES   1  -4  79 SW10      29.81F WCI -15
KEMMERER         N/A    N/A N/A N/A W7        29.79F
FORT BRIDGER   FAIR       7   0  73 SW15      29.84S WCI -10
ROCK SPRINGS   FAIR       3  -2  79 S12       29.81S WCI -13
DIXON            N/A     -3  -7  80 NE3       29.90S
RAWLINS        FAIR       7  -1  70 SW8       29.79R WCI  -6
SARATOGA       FAIR       5  -2  72 S8G17     29.81S WCI  -8
LARAMIE        FAIR       7  -3  64 SW14      29.72S WCI -10
CHEYENNE       FAIR      15   0  51 SW20      29.74S WCI  -2
TORRINGTON     FAIR      10  -1  61 CALM      29.81S
PINE BLUFFS    FAIR       1  -6  71 MISG      29.80S

$$



USA.gov is the U.S. government's official web portal to all federal, state and local government web resources and services.